Theta_e
312 314 313 314 317 317 316 314 312 311 312 313 314 312 306 308 314 316 320 317 316 314 317 319 322 325 325 325 327 323 326 326 326 328 330 323 326 323 323 328 327 331 330 331 336
313 313 314 313 313 316 318 316 314 312 311 311 314 314 310 307 315 319 310 310 316 321 324 324 324 325 323 325 326 326 326 326 321 327 330 328 324 323 325 325 329 334 334 334 336
311 311 312 314 313 312 314 318 317 313 312 312 312 315 312 309 317 314 304 303 308 319 322 325 326 324 326 323 325 327 329 326 326 328 329 329 329 325 323 325 325 329 335 333 334
311 311 311 311 312 313 312 313 318 317 313 313 311 315 312 313 303 317 317 310 306 318 319 323 325 326 326 323 322 327 326 326 325 324 325 329 329 328 324 322 321 320 334 333 331
309 310 309 310 311 311 312 313 312 317 316 313 312 315 312 313 313 320 322 317 311 319 321 322 325 324 325 323 320 321 324 323 322 322 323 323 327 328 327 323 322 329 333 332 332
307 307 308 308 309 309 311 313 312 312 317 314 313 314 312 311 309 311 316 318 313 319 321 322 323 321 322 321 319 319 320 320 323 323 322 323 323 325 324 323 323 329 332 331 331
306 306 307 307 307 308 309 311 312 311 316 317 314 314 314 311 309 308 309 322 317 320 320 320 323 321 320 322 319 320 322 320 320 321 323 321 323 325 322 322 323 323 320 327 330
305 305 306 306 306 306 307 308 311 312 312 317 314 314 314 313 312 308 310 311 321 320 318 317 321 320 321 320 321 322 319 323 320 321 321 322 324 321 319 320 321 320 318 318 318
304 304 304 305 305 306 305 307 309 312 311 313 316 314 315 313 312 312 310 310 323 322 321 319 320 319 321 322 322 320 321 321 320 319 321 321 322 320 318 319 318 316 316 315 316
303 303 303 304 306 306 305 305 307 310 311 312 313 314 312 313 313 312 311 310 322 321 321 321 321 320 319 323 323 322 322 320 320 319 318 319 319 317 316 318 318 317 315 314 314
303 303 303 303 303 305 307 306 308 309 311 312 313 315 312 312 312 311 310 309 316 320 323 321 324 322 321 322 318 319 318 319 318 318 318 317 318 318 317 315 316 316 314 314 314
303 303 302 303 303 303 305 306 307 308 311 311 312 314 312 312 313 311 311 311 319 320 319 323 322 318 316 320 321 317 319 318 317 316 316 316 317 315 312 315 314 316 315 315 314
302 302 303 304 304 304 304 305 306 308 309 310 311 312 312 312 313 312 309 312 319 319 321 320 317 317 318 320 323 321 320 318 320 318 317 319 320 318 316 314 315 315 314 314 314
301 302 303 303 303 303 303 302 304 307 309 310 312 311 311 313 315 311 309 314 317 319 319 319 315 318 319 321 321 321 320 318 319 320 319 317 321 317 316 315 314 314 313 312 311
301 302 302 302 301 302 302 302 303 305 310 308 309 309 310 314 313 312 309 313 317 317 317 318 318 318 320 320 320 318 318 320 318 318 319 319 320 317 316 316 315 314 312 311 311
301 302 301 301 301 300 301 302 304 308 309 309 309 311 312 313 313 312 311 311 313 316 316 315 314 316 318 316 317 316 317 317 317 320 322 319 319 316 314 315 313 312 311 311 311
301 301 300 301 301 301 301 303 306 308 306 310 312 312 311 314 314 313 313 312 316 318 318 316 315 315 315 317 316 317 318 310 323 323 320 314 318 317 313 312 312 312 311 310 309
300 300 300 300 300 300 302 303 306 306 308 309 310 312 313 311 313 313 313 313 313 313 316 316 318 315 314 317 319 319 318 317 312 314 316 313 319 316 314 313 313 312 312 311 309
300 300 300 300 300 300 301 303 304 303 306 310 309 311 312 311 313 313 313 313 313 313 314 316 314 311 313 314 316 318 321 315 312 307 310 313 314 314 314 313 312 310 310 312 311
299 299 299 299 300 300 301 301 302 303 305 308 310 309 311 311 312 314 312 312 312 313 310 311 313 310 313 313 314 316 315 320 316 316 317 315 316 314 315 315 312 313 310 309 309
299 299 299 299 299 300 300 299 299 301 302 306 308 309 308 309 312 313 313 312 311 312 312 310 310 309 311 314 317 317 317 315 314 314 314 313 313 310 312 310 311 310 310 309 308
296 298 298 299 300 299 299 296 300 300 302 303 306 308 308 309 310 311 312 311 310 311 314 312 310 310 313 312 312 315 315 315 316 314 311 312 312 312 311 310 310 311 309 310 307
297 297 298 298 299 296 294 298 302 301 303 303 305 308 308 309 310 311 311 310 310 310 313 313 314 313 314 314 314 314 315 315 314 312 315 316 314 311 312 310 312 311 310 310 310
297 297 298 297 296 295 294 299 300 302 302 303 304 305 308 308 310 309 310 309 310 311 312 312 313 314 313 312 313 314 314 315 316 317 314 314 311 310 311 311 311 309 307 306 306
297 297 297 299 298 297 298 300 302 304 303 302 302 304 304 306 308 310 309 310 310 311 312 313 315 313 310 311 312 313 314 315 317 315 315 313 313 312 310 310 310 305 306 306 305
296 297 296 292 297 298 300 300 301 303 304 304 302 302 303 300 308 309 310 312 312 311 311 312 314 313 312 312 311 312 313 314 315 315 315 312 311 309 307 306 307 307 306 305 305
293 294 295 298 299 299 299 298 299 301 301 302 302 303 303 302 303 305 304 305 309 312 313 313 313 313 316 313 313 312 311 313 313 313 314 315 313 309 309 309 308 306 305 305 303
Wind_Speed
24 23 23 19 22 24 23 20 17 15 16 14 11 11 11 11 12 11 11 11 10 15 13 14 10 13 7 3 3 3 4 2 3 4 4 3 3 4 3 3 3 4 4 4 25
20 23 21 23 23 20 25 23 21 18 16 13 13 10 10 9 9 13 18 16 16 11 5 3 3 9 3 2 3 3 4 8 4 1 4 6 1 5 2 1 2 3 5 12 29
21 21 22 22 24 26 22 25 24 21 19 14 14 11 8 4 4 10 21 29 23 19 10 3 1 1 1 2 2 4 5 4 2 2 5 5 4 4 1 1 3 5 6 8 14
20 20 21 22 23 23 25 23 24 24 21 18 15 12 8 7 7 2 2 11 29 21 15 6 1 3 3 5 3 2 6 3 3 1 3 4 3 5 1 2 5 6 14 13 10
23 23 22 22 22 21 23 24 23 24 25 21 17 15 9 3 7 1 5 5 20 23 21 7 4 5 6 4 2 4 3 5 6 8 2 3 6 5 5 8 3 3 12 12 13
24 26 24 23 22 22 21 22 22 22 26 24 20 18 6 10 12 15 7 4 18 27 19 15 8 5 5 5 5 3 3 5 5 8 4 3 6 3 4 4 6 7 9 9 13
26 28 25 26 22 20 21 21 21 22 23 26 22 20 12 12 10 12 19 5 18 28 14 22 17 5 5 2 5 5 4 5 4 3 4 4 5 9 9 6 8 8 8 9 15
27 27 26 24 24 23 21 20 21 20 19 25 24 21 10 16 32 19 13 11 13 20 23 21 21 3 3 2 5 4 4 2 4 7 5 5 14 6 10 7 10 10 8 8 10
28 27 27 25 23 21 22 19 18 18 17 17 23 16 7 15 16 27 24 6 15 14 16 11 10 5 2 4 3 2 3 6 7 7 3 7 4 5 9 9 9 9 9 8 8
30 29 27 25 22 21 20 17 17 14 16 14 19 10 7 15 9 14 26 17 7 12 4 5 4 5 5 8 11 7 7 5 6 5 8 12 18 14 11 8 12 11 10 8 8
29 28 27 25 24 21 16 7 3 5 16 8 4 1 7 13 19 23 16 16 5 4 9 8 10 21 29 18 8 10 5 10 3 6 2 7 15 13 16 14 15 12 9 9 9
31 28 28 24 24 24 22 10 14 1 6 20 15 10 5 12 8 7 26 10 10 19 7 7 25 19 8 10 13 7 14 9 4 4 7 9 16 13 9 15 10 12 9 9 6
33 30 26 25 24 23 26 30 24 19 4 7 19 16 5 7 7 16 22 13 18 21 21 16 11 10 12 13 14 18 18 8 4 2 4 2 16 11 6 6 6 5 7 6 9
32 30 27 26 24 26 25 33 28 14 7 11 15 11 13 6 7 12 23 21 8 25 20 14 18 20 13 16 18 20 15 6 7 5 8 5 10 6 4 9 7 7 7 9 9
32 32 29 30 11 20 23 26 24 13 11 16 15 11 19 11 11 10 21 6 17 11 9 16 12 15 18 23 18 10 10 13 6 6 1 9 2 5 4 8 8 8 9 9 10
32 32 28 27 26 26 25 18 20 12 10 10 18 20 21 25 11 10 11 9 3 7 16 18 4 16 13 11 17 6 5 4 4 6 11 19 6 16 11 9 8 7 9 9 11
33 31 29 29 26 27 24 12 13 15 9 8 17 23 32 22 30 13 17 26 11 12 14 16 15 2 8 7 8 8 7 1 7 8 16 9 7 23 5 9 12 12 12 12 11
32 32 33 36 29 29 21 10 18 15 6 5 13 23 31 26 24 23 18 16 21 12 9 16 11 22 8 14 8 18 18 6 8 6 6 5 10 13 6 13 15 14 16 7 9
26 31 29 33 32 30 10 16 9 12 10 5 20 20 25 22 11 25 26 25 20 23 11 16 17 7 4 5 17 8 13 12 5 2 3 5 7 7 9 10 7 9 6 8 5
23 19 27 31 34 23 10 21 7 6 4 12 21 17 20 29 21 26 26 25 18 24 9 6 6 5 22 5 12 12 9 7 7 6 6 4 4 6 2 2 6 3 7 5 3
13 5 16 30 33 8 10 13 4 7 17 8 22 13 21 23 23 16 19 15 29 27 19 6 4 4 15 17 15 8 8 5 4 5 5 3 6 8 12 8 7 6 5 4 6
5 6 22 36 10 3 9 7 5 5 7 8 6 16 15 22 26 24 23 15 29 28 29 13 3 4 18 22 20 18 21 17 8 6 3 2 7 3 7 10 7 6 4 4 6
5 4 21 29 10 5 3 7 5 13 9 9 6 10 2 18 14 21 18 21 26 24 22 17 5 5 3 2 0 23 14 16 7 3 8 8 10 6 5 8 4 6 2 1 3
4 5 4 5 7 12 7 11 11 10 6 5 2 4 6 6 13 16 15 12 15 28 26 22 5 13 15 17 13 19 27 20 19 11 18 12 18 8 5 7 2 5 4 5 5
5 4 5 10 10 9 14 10 16 7 8 5 3 1 6 5 8 4 17 12 13 28 26 17 17 11 7 5 18 22 26 24 19 26 16 20 15 15 8 4 7 7 6 6 5
5 4 1 4 12 17 14 14 13 3 9 7 6 9 5 5 6 10 5 15 16 20 24 17 7 16 12 1 8 13 18 20 23 24 18 11 11 6 7 7 6 6 6 5 5
4 4 6 8 11 12 11 16 15 5 4 8 10 6 11 12 8 9 6 11 7 14 22 18 12 9 18 7 5 1 20 19 16 16 19 15 26 7 5 7 7 7 6 6 6
Wind_Direction
259 265 259 259 255 250 250 251 251 246 243 248 256 263 263 258 269 273 250 231 235 252 275 282 313 344 332 314 314 85 75 252 266 23 307 337 11 352 325 98 61 20 136 250 170
256 253 258 259 260 261 250 249 249 247 245 245 243 253 257 254 275 257 243 240 225 222 240 250 309 345 353 302 305 105 134 213 179 102 328 331 50 322 84 30 32 29 13 144 164
251 253 254 252 258 258 258 248 245 245 243 243 233 238 247 234 304 245 262 237 223 218 213 196 252 306 302 22 248 198 191 224 190 67 2 333 337 322 45 286 210 216 180 164 169
259 254 250 254 254 254 256 254 246 242 240 237 227 226 220 166 227 336 278 229 213 214 218 220 209 141 191 229 232 222 228 220 289 111 21 294 271 329 240 227 298 253 172 169 177
259 258 256 256 255 253 251 253 253 243 238 233 227 211 183 215 242 186 356 238 197 204 204 177 170 161 185 211 249 222 272 278 263 276 224 272 271 244 254 278 288 100 164 188 190
259 258 257 255 256 255 253 248 249 251 236 231 224 211 196 230 243 229 326 168 177 191 195 183 201 192 185 227 162 185 230 276 296 284 300 253 267 213 230 238 293 163 203 206 202
254 254 254 256 255 254 251 250 246 243 242 231 223 209 225 225 243 234 234 188 190 193 179 206 223 196 194 231 226 245 286 300 241 251 261 354 283 231 259 270 270 253 231 217 221
252 250 250 248 251 250 249 248 245 242 245 232 222 208 238 234 239 244 205 235 206 206 206 213 214 279 192 253 5 177 121 205 240 201 236 123 259 269 271 248 261 263 277 247 227
248 249 247 243 244 246 247 249 247 242 242 243 221 197 234 199 216 226 219 224 189 191 208 193 194 195 175 146 348 339 158 193 263 205 183 186 269 255 238 230 246 261 267 263 262
243 244 243 238 235 239 242 245 247 245 238 234 267 170 240 199 184 203 214 209 179 169 142 176 186 181 191 180 204 191 197 221 188 227 203 238 252 261 270 256 245 242 245 262 267
241 238 236 235 234 226 221 212 171 235 211 190 172 243 134 179 189 204 184 187 181 166 184 182 191 211 206 204 194 188 201 210 210 232 203 238 259 251 256 249 249 250 252 250 255
236 234 232 225 228 226 216 208 208 39 234 221 237 226 113 169 177 209 187 165 181 198 146 168 216 215 149 196 203 202 212 215 257 210 171 265 266 254 240 256 232 238 238 249 269
233 229 223 220 219 218 223 227 217 233 251 212 215 227 203 166 199 204 180 181 189 195 197 196 226 160 177 193 199 219 219 186 175 198 250 322 283 262 235 242 258 223 223 228 233
231 225 218 216 221 217 220 226 222 215 241 203 192 222 215 184 223 219 203 177 180 202 196 221 226 187 186 201 195 217 215 163 187 159 240 154 265 239 200 245 243 240 242 246 253
227 220 216 208 200 191 212 218 216 208 236 178 185 185 178 200 128 220 195 202 193 170 170 209 170 202 197 207 182 223 170 193 175 194 97 242 268 270 185 250 253 265 256 249 254
223 216 213 214 208 214 207 198 184 218 233 183 165 171 167 195 190 168 189 209 169 173 206 214 174 182 203 196 194 137 84 132 145 187 236 239 179 267 239 248 249 230 238 243 250
217 213 211 206 210 200 196 188 208 222 144 165 175 171 184 188 201 179 192 199 187 177 191 217 226 256 167 145 181 174 141 193 214 215 236 152 176 243 242 244 251 267 251 243 245
220 217 215 209 203 190 174 206 235 215 188 165 177 184 186 181 200 196 193 206 200 211 174 194 205 217 181 201 181 197 201 191 197 204 234 158 222 237 234 245 250 241 258 265 258
214 209 202 205 197 186 197 221 216 219 169 204 165 190 196 194 166 189 199 205 203 194 187 201 218 205 188 146 168 195 207 202 97 100 82 210 279 292 251 268 299 262 248 254 207
196 195 201 196 190 183 212 233 223 202 283 190 186 187 191 193 188 194 196 201 195 205 205 205 197 197 193 142 213 181 157 179 208 194 227 240 264 233 281 244 344 127 170 201 99
174 199 184 187 177 202 219 220 225 231 202 238 212 197 191 190 200 198 193 180 192 194 214 195 144 229 159 203 181 174 203 197 173 173 189 195 247 205 232 215 161 147 135 37 41
160 202 169 165 191 183 204 196 203 217 169 245 286 194 189 191 197 208 211 200 191 187 201 197 169 167 199 208 205 197 209 199 204 221 214 132 254 224 212 139 143 131 94 21 37
164 156 176 167 196 171 223 218 216 229 189 214 252 206 162 189 194 204 207 202 188 191 188 188 201 150 102 34 318 211 206 205 197 87 196 197 247 152 134 135 106 118 100 92 56
153 172 166 201 188 189 186 241 211 203 174 168 285 176 128 172 213 206 198 196 193 199 191 180 166 215 209 207 183 197 210 202 202 208 222 211 230 263 211 151 167 152 140 81 66
179 203 198 171 183 170 198 208 179 163 195 135 226 218 161 153 180 220 223 190 187 196 196 201 206 197 234 259 182 200 202 201 203 218 214 231 229 223 257 179 171 160 168 163 139
151 158 183 146 175 182 179 188 226 135 152 166 154 212 189 165 175 177 205 193 195 195 199 196 213 199 207 293 171 195 202 198 207 221 221 224 253 173 187 131 155 149 132 96 63
128 276 143 140 165 178 192 199 207 244 231 182 179 166 207 212 194 183 195 280 245 187 195 187 188 181 206 156 94 241 206 195 207 213 210 217 236 105 187 190 153 148 138 103 73